Dansville, NY

12:19 PM EST on February 12, 2016 (GMT -0500)
Dansville Municipal

Weather History for KDSV - February, 2014

Change the Weather History Date:

Thursday, February 20, 2014

  Actual Average Record
Temperature  
Mean Temperature 35 °F -  
Max Temperature 45 °F 38 °F 66 °F (1981)
Min Temperature 25 °F 21 °F -10 °F (1993)
Degree Days  
Heating Degree Days 30    
Moisture  
Dew Point 29 °F    
Average Humidity 80    
Maximum Humidity 93    
Minimum Humidity 44    
Precipitation  
Precipitation 0.35 in - - ()
Sea Level Pressure  
Sea Level Pressure 30.03 in    
Wind  
Wind Speed 6 mph (SSE)    
Max Wind Speed 15 mph    
Max Gust Speed 34 mph    
Visibility 6 miles    
Events Rain    
Averages and records for this station are not official NWS values.
T = Trace of Precipitation, MM = Missing Value Source: NWS Daily Summary

Daily Weather History Graph

Daily Weather History Graph

Search for Another Location

Airport or City:

Trip Planner

Search our weather history database for the weather conditions in past years. The results will help you decide how hot, cold, wet, or windy it might be!

Date:

Astronomy

Feb. 20, 2014 Rise Set
Actual Time 7:00 AM EST 5:49 PM EST
Civil Twilight 6:31 AM EST 6:17 PM EST
Nautical Twilight 5:59 AM EST 6:50 PM EST
Astronomical Twilight 5:26 AM EST 7:23 PM EST
Moon 11:50 PM EST (2/20) 9:34 AM EST (2/20)
Length of Visible Light 11h 46m
Length of Day
10h 48m
Waning Gibbous, 71% of the Moon is Illuminated
Feb 20
Waning Gibbous
Feb 22
Last Quarter
Mar 1
New
Mar 8
First Quarter
Mar 16
Full

Hourly Weather History & Observations

Time (EST) Temp. Windchill Dew Point Humidity Pressure Visibility Wind Dir Wind Speed Gust Speed Precip Events Conditions
12:54 AM 28.0 °F 24.2 °F 24.1 °F 85% 30.13 in 6.0 mi South 3.5 mph - N/A   Clear
1:54 AM 28.0 °F 22.8 °F 25.0 °F 88% 30.13 in 6.0 mi SE 4.6 mph - N/A   Clear
2:54 AM 27.0 °F 18.7 °F 23.0 °F 85% 30.13 in 6.0 mi SE 8.1 mph - N/A   Clear
3:54 AM 26.1 °F 21.9 °F 23.0 °F 88% 30.16 in 6.0 mi SSE 3.5 mph - N/A   Clear
4:54 AM 28.0 °F 19.3 °F 24.1 °F 85% 30.18 in 6.0 mi ESE 9.2 mph - N/A   Clear
5:54 AM 26.1 °F 20.5 °F 23.0 °F 88% 30.19 in 6.0 mi SE 4.6 mph - N/A   Clear
6:54 AM 25.0 °F 18.1 °F 23.0 °F 92% 30.19 in 5.0 mi SE 5.8 mph - N/A   Clear
7:54 AM 27.0 °F 18.7 °F 23.0 °F 85% 30.20 in 5.0 mi SE 8.1 mph - N/A   Clear
8:54 AM 30.0 °F 24.1 °F 26.1 °F 85% 30.20 in 6.0 mi SSE 5.8 mph - N/A   Clear
9:54 AM 36.0 °F 32.1 °F 27.0 °F 70% 30.18 in 8.0 mi SE 4.6 mph - N/A   Clear
10:54 AM 39.0 °F 35.7 °F 26.1 °F 60% 30.14 in 10.0 mi South 4.6 mph - N/A   Scattered Clouds
11:54 AM 43.0 °F 41.3 °F 24.1 °F 47% 30.13 in 10.0 mi SSW 3.5 mph - N/A   Clear
12:54 PM 44.1 °F 39.0 °F 25.0 °F 47% 30.06 in 10.0 mi ESE 9.2 mph - N/A   Clear
1:54 PM 45.0 °F 39.7 °F 24.1 °F 44% 30.04 in 10.0 mi ESE 10.4 mph - N/A   Scattered Clouds
2:54 PM 39.9 °F 31.8 °F 32.0 °F 73% 30.05 in 3.0 mi SSE 15.0 mph 34.5 mph 0.01 in Rain Rain
3:25 PM 37.4 °F 32.8 °F 33.8 °F 87% 29.98 in 2.0 mi South 5.8 mph - 0.05 in Rain Rain
3:46 PM 35.6 °F 29.9 °F 33.8 °F 93% 29.97 in 2.5 mi South 6.9 mph - 0.09 in Rain Light Rain
3:54 PM 36.0 °F 29.6 °F 33.1 °F 89% 30.01 in 4.0 mi SSE 8.1 mph - 0.11 in Rain Rain
4:15 PM 37.4 °F 34.9 °F 33.8 °F 87% 30.00 in 2.0 mi Variable 3.5 mph - 0.05 in Rain Rain
4:28 PM 37.4 °F 34.9 °F 33.8 °F 87% 29.99 in 3.0 mi SE 3.5 mph - 0.07 in Rain Rain
4:41 PM 35.6 °F 29.9 °F 33.8 °F 93% 29.97 in 2.5 mi SSE 6.9 mph - 0.11 in Rain Heavy Rain
4:54 PM 36.0 °F 29.0 °F 33.1 °F 89% 30.01 in 3.0 mi SSE 9.2 mph - 0.13 in Rain Rain
5:03 PM 35.6 °F 27.5 °F 33.8 °F 93% 29.95 in 2.5 mi SSE 11.5 mph - 0.02 in Rain Rain
5:11 PM 35.6 °F 27.5 °F 33.8 °F 93% 29.95 in 5.0 mi SSE 11.5 mph - 0.02 in Rain Light Rain
5:54 PM 37.0 °F 32.4 °F 33.1 °F 86% 29.99 in 8.0 mi SSE 5.8 mph - 0.04 in Rain Light Rain
6:54 PM 37.0 °F 29.8 °F 33.1 °F 86% 29.95 in 10.0 mi SSE 10.4 mph - 0.00 in   Overcast
7:54 PM 37.9 °F 32.7 °F 32.0 °F 79% 29.90 in 10.0 mi SSE 6.9 mph - N/A   Partly Cloudy
8:54 PM 39.9 °F 33.9 °F 30.9 °F 70% 29.86 in 10.0 mi SE 9.2 mph - N/A   Overcast
9:54 PM 39.0 °F 34.8 °F 32.0 °F 76% 29.84 in 9.0 mi SSE 5.8 mph - 0.01 in Rain Light Rain
10:54 PM 37.9 °F 33.5 °F 33.1 °F 83% 29.81 in 10.0 mi South 5.8 mph - 0.03 in   Overcast
11:54 PM 39.9 °F 35.1 °F 33.1 °F 77% 29.77 in 10.0 mi SE 6.9 mph - 0.02 in Rain Light Rain